User: anonymous   Login
Location: Barcelona
(41.3830°N, 2.1830°E)
Time: 11:37:38
(UTC+01:00)
Language:

BUGSAT 1 - Orbit

View from above orbital plane
View from above orbital plane
View from above satellite
View from above satellite

Ground track
Ground track

The orbit data is extracted from the following two-line orbital elements,

1 40014U 14033E   19085.12271085  .00000203  00000-0  23972-4 0  9991
2 40014  98.0066  30.8195 0031628 343.5069  16.5124 14.95219701259864
Epoch (UTC): 26 March 2019 02:56:42
Eccentricity: 0.0031628
inclination: 98.0066°
perigee height: 559 km
apogee height: 604 km
right ascension of ascending node: 30.8195°
argument of perigee: 343.5069°
revolutions per day: 14.95219701
mean anomaly at epoch: 16.5124°
orbit number at epoch: 25986

The dashed part of the orbit path shows where the satellite is in the earth's shadow,  

DLR